Tracking 30685 objects as of 17-Jun-2025
HD Live streaming from Space Station
objects crossing your sky now

STARLINK-34045

Track STARLINK-34045 now!
10-day predictions
STARLINK-34045 is classified as:


NORAD ID: 63979
Int'l Code: 2025-099AD
Perigee: 420.9 km
Apogee: 423.4 km
Inclination: 43.0 °
Period: 92.9 minutes
Semi major axis: 6793 km
RCS: Unknown
Launch date: May 13, 2025
Source: United States (US)
Launch site: AIR FORCE EASTERN TEST RANGE (AFETR)
Your satellite tracking list
Your tracking list is empty




NASA's NSSDC Master Catalog

Two Line Element Set (TLE):
1 63979U 25099AD  25168.22355877  .00049441  00000-0  84310-3 0  9991
2 63979  42.9992 233.9575 0001836 273.6091  86.4560 15.50583538  6661
Source of the keplerian elements: AFSPC